Starlink 11417

operational
NORAD ID: 62983 Int'l Des: 2025-031 Owner: SPXS Country: US Constellation: starlink
LEOCIRCULAR

Über Starlink 11417

Beschreibung wird geladen...

Live-Position

3D-Globus wird geladen...

Nächste Überflüge

Höhenverlauf

Altitude vs Time

uPlot chart will show altitude changes over time

Zweizeiliger Elementsatz

1 62983U 25031C 26034.77284211 .00219430 00000-0 16652-2 0 9997
2 62983 43.0018 206.3043 0001463 176.8161 183.2716 15.70891176 57407
Epoch: 3. Feb. 2026 • Age: 29 hours

Aktueller Status

Höhe 354.8 km
Geschwindigkeit 7.70 km/s
Subsatellitenpunkt 15.68°N, 86.75°E
Startdatum 11. Feb. 2025
Alter 0.9 years
Typ internet

Technische Details

Klassifizierung Payload
Masse 960.00 kg
Trockenmasse 910.00 kg
Gesamtmasse 960.00 kg
Länge 0.30 m
Durchmesser 4.10 m
Spannweite 29.00 m
Form Box + pan
Hersteller SPXS
Bus-Typ Starlink V2MD
Phasenstatus In Orbit
Besitzer/Staat SPXS/US

Große Konstellationen

Loading constellations...